User: anonymous   Login
Location: Caltech
(34.1382°N, 118.1253°W)
Time: 21:31:18
(UTC-07:00)
Language:

SO-67 - Orbit

View from above orbital plane
View from above orbital plane
View from above satellite
View from above satellite

Ground track
Ground track

The orbit data is extracted from the following two-line orbital elements,

1 35870U 09049F   17267.87341615  .00005769  00000-0  88640-4 0  9990
2 35870  97.0994 283.7301 0004401  72.3499  48.3986 15.54642513448707
Epoch (UTC): 24 September 2017 20:57:43
Eccentricity: 0.0004401
inclination: 97.0994°
perigee height: 400 km
apogee height: 406 km
right ascension of ascending node: 283.7301°
argument of perigee: 72.3499°
revolutions per day: 15.54642513
mean anomaly at epoch: 48.3986°
orbit number at epoch: 44870

The dashed part of the orbit path shows where the satellite is in the earth's shadow,  

DLR